| time (UTC) | temp F | wind direction | speed MPH | gust MPH | rain 1hr in | rain 24hr in | rain mn in | humidity % | barometer mb |
| 20260509030616 | 43 | 0.0 | 0.0 | 0.00 | 0.00 | 0.00 | 86 | 1011.9 | |
| 20260509025616 | 43 | 0.0 | 0.0 | 0.00 | 0.00 | 0.00 | 86 | 1011.9 | |
| 20260509024616 | 43 | 0.0 | 0.0 | 0.00 | 0.00 | 0.00 | 85 | 1012.1 | |
| 20260509023616 | 43 | 0.0 | 0.0 | 0.00 | 0.00 | 0.00 | 84 | 1012.2 | |
| 20260509022737 | 44 | 0.0 | 0.0 | 0.00 | 0.00 | 0.00 | 83 | 1012.0 | |
| 20260509021616 | 45 | 0.0 | 0.0 | 0.00 | 0.00 | 0.00 | 83 | 1011.9 | |
| 20260509020616 | 46 | 0.0 | 0.0 | 0.00 | 0.00 | 0.00 | 82 | 1012.0 | |
| 20260509015616 | 47 | 0.0 | 0.0 | 0.00 | 0.00 | 0.00 | 80 | 1012.1 | |
| 20260509014616 | 47 | 0.0 | 0.0 | 0.00 | 0.00 | 0.00 | 80 | 1012.1 | |
| 20260509013616 | 48 | 0.0 | 0.0 | 0.00 | 0.00 | 0.00 | 81 | 1012.1 | |
| 20260509012657 | 48 | 0.0 | 0.0 | 0.00 | 0.00 | 0.00 | 80 | 1011.9 | |
| 20260509011616 | 48 | 0.0 | 0.0 | 0.00 | 0.00 | 0.00 | 79 | 1011.7 | |
| 20260509010616 | 48 | 0.0 | 0.0 | 0.00 | 0.00 | 0.00 | 77 | 1011.8 | |
| 20260509005636 | 48 | 0.0 | 0.0 | 0.00 | 0.00 | 0.00 | 77 | 1011.5 | |
| 20260509004616 | 48 | 0.0 | 0.0 | 0.00 | 0.00 | 0.00 | 77 | 1011.3 | |
| 20260509003616 | 49 | 0.0 | 0.0 | 0.00 | 0.00 | 0.00 | 75 | 1011.1 | |
| 20260509002637 | 50 | 0.0 | 0.0 | 0.00 | 0.00 | 0.00 | 74 | 1011.1 | |
| 20260509001636 | 51 | 0.0 | 0.0 | 0.00 | 0.00 | 0.00 | 72 | 1011.1 | |
| 20260509000616 | 51 | 0.0 | 0.0 | 0.00 | 0.00 | 0.00 | 71 | 1011.0 | |
| 20260508235615 | 52 | 0.0 | 0.0 | 0.00 | 0.00 | 0.00 | 68 | 1010.9 | |
| 20260508234736 | 54 | 0.0 | 0.0 | 0.00 | 0.00 | 0.00 | 59 | 1010.9 | |
| 20260508233615 | 54 | 0.0 | 0.0 | 0.00 | 0.00 | 0.00 | 59 | 1010.7 | |
| 20260508232736 | 55 | 0.0 | 0.0 | 0.00 | 0.00 | 0.00 | 58 | 1010.6 | |
| 20260508231615 | 55 | 0.0 | 1.0 | 0.00 | 0.00 | 0.00 | 57 | 1010.6 | |
| 20260508230615 | 55 | 337 | 1.0 | 2.0 | 0.00 | 0.00 | 0.00 | 54 | 1010.7 |
| 20260508225636 | 56 | 247 | 1.0 | 2.0 | 0.00 | 0.00 | 0.00 | 50 | 1010.6 |
| 20260508224615 | 56 | 22 | 1.0 | 1.0 | 0.00 | 0.00 | 0.00 | 50 | 1010.5 |
| 20260508223716 | 56 | 0.0 | 1.0 | 0.00 | 0.00 | 0.00 | 52 | 1010.5 | |
| 20260508222615 | 56 | 0.0 | 2.0 | 0.00 | 0.00 | 0.00 | 51 | 1010.5 | |
| 20260508221616 | 57 | 67 | 2.0 | 3.0 | 0.00 | 0.00 | 0.00 | 52 | 1010.5 |
| 20260508220615 | 57 | 45 | 2.0 | 3.0 | 0.00 | 0.00 | 0.00 | 53 | 1010.5 |
| 20260508215615 | 57 | 0.0 | 1.0 | 0.00 | 0.00 | 0.00 | 53 | 1010.5 | |
| 20260508213616 | 56 | 67 | 4.0 | 5.0 | 0.00 | 0.00 | 0.00 | 52 | 1010.7 |
| 20260508212655 | 56 | 0.0 | 2.0 | 0.00 | 0.00 | 0.00 | 51 | 1010.7 | |
| 20260508211615 | 57 | 0.0 | 1.0 | 0.00 | 0.00 | 0.00 | 60 | 1010.7 | |
| 20260508210635 | 57 | 45 | 1.0 | 2.0 | 0.00 | 0.00 | 0.00 | 53 | 1010.7 |
| 20260508205716 | 58 | 337 | 1.0 | 4.0 | 0.00 | 0.00 | 0.00 | 53 | 1010.9 |
| 20260508204615 | 56 | 0 | 1.0 | 4.0 | 0.00 | 0.00 | 0.00 | 51 | 1010.9 |
| 20260508202636 | 56 | 270 | 3.0 | 4.0 | 0.00 | 0.00 | 0.00 | 53 | 1011.1 |
| 20260508201655 | 56 | 292 | 8.0 | 12.0 | 0.00 | 0.00 | 0.00 | 52 | 1011.4 |
| 20260508200615 | 55 | 22 | 1.0 | 3.0 | 0.00 | 0.00 | 0.00 | 54 | 1011.4 |
| 20260508195616 | 55 | 247 | 1.0 | 4.0 | 0.00 | 0.00 | 0.00 | 52 | 1011.5 |
| 20260508194615 | 56 | 0.0 | 2.0 | 0.00 | 0.00 | 0.00 | 55 | 1011.6 | |
| 20260508193635 | 56 | 315 | 1.0 | 3.0 | 0.00 | 0.00 | 0.00 | 52 | 1011.8 |
| 20260508192615 | 55 | 292 | 3.0 | 7.0 | 0.00 | 0.00 | 0.00 | 52 | 1011.9 |
| 20260508191656 | 56 | 67 | 5.0 | 9.0 | 0.00 | 0.00 | 0.00 | 55 | 1012.0 |
| 20260508190715 | 56 | 292 | 4.0 | 8.0 | 0.00 | 0.00 | 0.00 | 54 | 1012.2 |
| 20260508185616 | 56 | 315 | 4.0 | 6.0 | 0.00 | 0.00 | 0.00 | 56 | 1012.2 |
| 20260508184635 | 55 | 292 | 6.0 | 12.0 | 0.00 | 0.00 | 0.00 | 58 | 1012.4 |
| 20260508183615 | 54 | 270 | 5.0 | 7.0 | 0.00 | 0.00 | 0.00 | 61 | 1012.6 |
| 20260508182715 | 54 | 247 | 4.0 | 8.0 | 0.00 | 0.00 | 0.00 | 62 | 1012.8 |
| 20260508181616 | 53 | 202 | 6.0 | 8.0 | 0.00 | 0.00 | 0.00 | 63 | 1012.7 |
| 20260508180636 | 52 | 292 | 3.0 | 7.0 | 0.00 | 0.00 | 0.00 | 64 | 1012.8 |
| 20260508175615 | 51 | 270 | 1.0 | 3.0 | 0.00 | 0.00 | 0.00 | 69 | 1012.8 |
| 20260508174615 | 50 | 0.0 | 1.0 | 0.00 | 0.00 | 0.00 | 69 | 1012.9 | |
| 20260508173635 | 50 | 292 | 2.0 | 4.0 | 0.00 | 0.00 | 0.00 | 70 | 1013.0 |
| 20260508172615 | 50 | 67 | 3.0 | 4.0 | 0.00 | 0.00 | 0.00 | 68 | 1013.0 |
| 20260508171656 | 49 | 135 | 1.0 | 2.0 | 0.00 | 0.00 | 0.00 | 72 | 1013.0 |
| 20260508170655 | 50 | 315 | 2.0 | 3.0 | 0.00 | 0.00 | 0.00 | 76 | 1013.1 |
| 20260508165656 | 49 | 247 | 4.0 | 8.0 | 0.00 | 0.00 | 0.00 | 78 | 1013.2 |
| 20260508164615 | 48 | 22 | 2.0 | 4.0 | 0.00 | 0.00 | 0.00 | 80 | 1013.3 |
| 20260508163615 | 47 | 247 | 1.0 | 3.0 | 0.00 | 0.00 | 0.00 | 81 | 1013.3 |
| 20260508162656 | 46 | 22 | 4.0 | 5.0 | 0.00 | 0.00 | 0.00 | 80 | 1013.3 |
| 20260508161615 | 45 | 0.0 | 1.0 | 0.00 | 0.00 | 0.00 | 83 | 1013.3 | |
| 20260508160615 | 44 | 337 | 2.0 | 3.0 | 0.00 | 0.00 | 0.00 | 83 | 1013.5 |
| 20260508155715 | 44 | 0.0 | 1.0 | 0.00 | 0.00 | 0.00 | 84 | 1013.5 | |
| 20260508154756 | 43 | 0.0 | 0.0 | 0.00 | 0.00 | 0.00 | 84 | 1013.5 | |
| 20260508153615 | 44 | 337 | 1.0 | 2.0 | 0.00 | 0.00 | 0.00 | 84 | 1013.3 |
| 20260508152615 | 44 | 45 | 1.0 | 2.0 | 0.00 | 0.00 | 0.00 | 84 | 1013.0 |
| 20260508151615 | 44 | 67 | 1.0 | 2.0 | 0.00 | 0.00 | 0.00 | 84 | 1013.1 |
| 20260508150615 | 44 | 0 | 1.0 | 3.0 | 0.00 | 0.00 | 0.00 | 84 | 1012.8 |
| 20260508144637 | 44 | 0.0 | 1.0 | 0.00 | 0.00 | 0.00 | 84 | 1012.6 | |
| 20260508143617 | 44 | 45 | 3.0 | 5.0 | 0.00 | 0.00 | 0.00 | 85 | 1012.8 |
| 20260508142617 | 44 | 0.0 | 0.0 | 0.00 | 0.00 | 0.00 | 86 | 1012.9 | |
| 20260508141637 | 44 | 0.0 | 1.0 | 0.00 | 0.00 | 0.00 | 87 | 1012.7 | |
| 20260508140617 | 43 | 0.0 | 1.0 | 0.00 | 0.00 | 0.00 | 89 | 1012.8 | |
| 20260508135617 | 43 | 0.0 | 0.0 | 0.00 | 0.00 | 0.00 | 89 | 1013.0 | |
| 20260508134617 | 43 | 0.0 | 0.0 | 0.00 | 0.00 | 0.00 | 89 | 1012.8 | |
| 20260508133757 | 43 | 0.0 | 0.0 | 0.00 | 0.00 | 0.00 | 90 | 1012.8 | |
| 20260508132617 | 43 | 0.0 | 0.0 | 0.00 | 0.00 | 0.00 | 90 | 1012.6 | |
| 20260508131616 | 43 | 0.0 | 0.0 | 0.00 | 0.00 | 0.00 | 91 | 1012.5 | |
| 20260508130637 | 43 | 0.0 | 0.0 | 0.00 | 0.00 | 0.00 | 91 | 1012.2 | |
| 20260508125637 | 42 | 0.0 | 0.0 | 0.00 | 0.00 | 0.00 | 92 | 1012.3 | |
| 20260508124616 | 42 | 292 | 2.0 | 3.0 | 0.00 | 0.00 | 0.00 | 92 | 1012.1 |
| 20260508123657 | 41 | 0.0 | 0.0 | 0.00 | 0.00 | 0.00 | 93 | 1012.0 | |
| 20260508122616 | 41 | 0.0 | 0.0 | 0.00 | 0.00 | 0.00 | 93 | 1012.0 | |
| 20260508121616 | 41 | 0.0 | 0.0 | 0.00 | 0.00 | 0.00 | 93 | 1012.1 | |
| 20260508120656 | 40 | 0.0 | 0.0 | 0.00 | 0.00 | 0.00 | 93 | 1012.1 | |
| 20260508115637 | 40 | 0.0 | 1.0 | 0.00 | 0.00 | 0.00 | 93 | 1012.1 | |
| 20260508114657 | 40 | 0.0 | 0.0 | 0.00 | 0.00 | 0.00 | 94 | 1012.1 | |
| 20260508113637 | 38 | 0.0 | 0.0 | 0.00 | 0.00 | 0.00 | 94 | 1012.2 | |
| 20260508112616 | 38 | 0.0 | 0.0 | 0.00 | 0.00 | 0.00 | 94 | 1012.5 | |
| 20260508111617 | 38 | 0.0 | 0.0 | 0.00 | 0.00 | 0.00 | 94 | 1012.6 | |
| 20260508110616 | 38 | 0.0 | 0.0 | 0.00 | 0.00 | 0.00 | 94 | 1012.6 | |
| 20260508105636 | 37 | 0.0 | 0.0 | 0.00 | 0.00 | 0.00 | 94 | 1012.4 | |
| 20260508104636 | 37 | 0.0 | 0.0 | 0.00 | 0.00 | 0.00 | 94 | 1012.4 | |
| 20260508103657 | 37 | 0.0 | 0.0 | 0.00 | 0.00 | 0.00 | 94 | 1012.5 | |
| 20260508102616 | 37 | 0.0 | 0.0 | 0.00 | 0.00 | 0.00 | 94 | 1012.6 | |
| 20260508101757 | 36 | 0.0 | 0.0 | 0.00 | 0.00 | 0.00 | 94 | 1012.6 | |
| 20260508100637 | 36 | 0.0 | 0.0 | 0.00 | 0.00 | 0.00 | 93 | 1012.5 | |
| 20260508095636 | 36 | 0.0 | 0.0 | 0.00 | 0.00 | 0.00 | 94 | 1012.5 | |
| 20260508094636 | 35 | 0.0 | 0.0 | 0.00 | 0.00 | 0.00 | 93 | 1012.5 | |
| 20260508093617 | 35 | 0.0 | 0.0 | 0.00 | 0.00 | 0.00 | 93 | 1012.6 | |
| 20260508092616 | 35 | 0.0 | 0.0 | 0.00 | 0.00 | 0.00 | 93 | 1012.6 | |
| 20260508091637 | 35 | 0.0 | 0.0 | 0.00 | 0.00 | 0.00 | 93 | 1012.3 | |
| 20260508090616 | 35 | 0.0 | 0.0 | 0.00 | 0.00 | 0.00 | 93 | 1012.3 | |
| 20260508085617 | 35 | 0.0 | 0.0 | 0.00 | 0.00 | 0.00 | 93 | 1012.2 | |
| 20260508084636 | 36 | 0.0 | 0.0 | 0.00 | 0.00 | 0.00 | 93 | 1012.0 | |
| 20260508083616 | 36 | 0.0 | 0.0 | 0.00 | 0.00 | 0.00 | 92 | 1011.9 | |
| 20260508082616 | 36 | 0.0 | 0.0 | 0.00 | 0.00 | 0.00 | 92 | 1011.9 | |
| 20260508081636 | 37 | 0.0 | 0.0 | 0.00 | 0.00 | 0.00 | 92 | 1012.0 | |
| 20260508080616 | 37 | 0.0 | 0.0 | 0.00 | 0.00 | 0.00 | 92 | 1011.9 | |
| 20260508075617 | 38 | 0.0 | 0.0 | 0.00 | 0.00 | 0.00 | 92 | 1011.9 | |
| 20260508074616 | 38 | 0.0 | 0.0 | 0.00 | 0.00 | 0.00 | 92 | 1011.7 | |
| 20260508073736 | 39 | 0.0 | 0.0 | 0.00 | 0.00 | 0.00 | 92 | 1011.5 | |
| 20260508072616 | 39 | 0.0 | 0.0 | 0.00 | 0.00 | 0.00 | 92 | 1011.7 | |
| 20260508071637 | 40 | 0.0 | 0.0 | 0.00 | 0.00 | 0.00 | 92 | 1011.8 | |
| 20260508070616 | 41 | 0.0 | 1.0 | 0.00 | 0.00 | 0.00 | 92 | 1011.8 | |
| 20260508065616 | 41 | 0.0 | 0.0 | 0.00 | 0.00 | 0.00 | 92 | 1011.8 | |
| 20260508064617 | 41 | 0.0 | 0.0 | 0.00 | 0.00 | 0.00 | 92 | 1011.9 | |
| 20260508063636 | 41 | 0.0 | 0.0 | 0.00 | 0.00 | 0.00 | 91 | 1011.7 | |
| 20260508062616 | 41 | 0.0 | 0.0 | 0.00 | 0.00 | 0.00 | 91 | 1011.8 | |
| 20260508061617 | 40 | 0.0 | 0.0 | 0.00 | 0.00 | 0.00 | 91 | 1011.6 | |
| 20260508060616 | 41 | 0.0 | 0.0 | 0.00 | 0.00 | 0.00 | 90 | 1011.5 | |
| 20260508055656 | 41 | 0.0 | 0.0 | 0.00 | 0.00 | 0.00 | 90 | 1011.4 | |
| 20260508053636 | 42 | 0.0 | 0.0 | 0.00 | 0.00 | 0.00 | 90 | 1011.7 | |
| 20260508052637 | 41 | 0.0 | 0.0 | 0.00 | 0.00 | 0.00 | 90 | 1011.7 | |
| 20260508051616 | 41 | 0.0 | 0.0 | 0.00 | 0.00 | 0.00 | 89 | 1011.7 | |
| 20260508050616 | 41 | 0.0 | 0.0 | 0.00 | 0.00 | 0.00 | 89 | 1011.6 | |
| 20260508045616 | 41 | 0.0 | 0.0 | 0.00 | 0.00 | 0.00 | 88 | 1011.7 | |
| 20260508044637 | 42 | 0.0 | 0.0 | 0.00 | 0.00 | 0.00 | 88 | 1011.8 | |
| 20260508043616 | 43 | 0.0 | 0.0 | 0.00 | 0.00 | 0.00 | 88 | 1011.9 | |
| 20260508042716 | 43 | 0.0 | 1.0 | 0.00 | 0.00 | 0.00 | 87 | 1011.9 | |
| 20260508041616 | 43 | 0.0 | 0.0 | 0.00 | 0.00 | 0.00 | 87 | 1012.0 | |
| 20260508040636 | 43 | 0.0 | 0.0 | 0.00 | 0.00 | 0.00 | 86 | 1012.0 | |
| 20260508035636 | 43 | 0.0 | 0.0 | 0.00 | 0.00 | 0.00 | 86 | 1011.8 | |
| 20260508034637 | 43 | 0.0 | 0.0 | 0.00 | 0.00 | 0.00 | 86 | 1011.9 | |
| 20260508033636 | 42 | 0.0 | 0.0 | 0.00 | 0.00 | 0.00 | 87 | 1011.8 | |
| 20260508032756 | 42 | 0.0 | 0.0 | 0.00 | 0.00 | 0.00 | 87 | 1011.8 | |
| 20260508031636 | 42 | 0.0 | 0.0 | 0.00 | 0.00 | 0.00 | 87 | 1011.5 |